[[{"header":{"parameterUnit":"m.s-1","parameterCategory":1,"la1":30.2992,"la2":30.254,"lo1":-89.0895,"lo2":-89.0443,"dy":0.0025,"dx":0.0025,"nx":19,"ny":19,"refTime":"2026-04-20T03:00:00:Z","depth":0,"parameterNumber":2,"parameterNumberName":"U-component_of_WINDS"},"data":[0,0,0,-6.4866,-6.487,-6.5018,-6.5018,-6.5215,-6.5217,0,0,0,0,0,0,0,0,0,0,0,-6.4828,-6.4829,-6.4866,-6.487,-6.5018,-6.5019,-6.5215,-6.5217,0,0,0,0,0,0,0,0,0,0,0,-6.4827,-6.4829,-6.4831,-6.4871,-6.5018,-6.5019,-6.5214,-6.51,0,0,0,0,0,0,0,0,0,0,-6.4954,-6.4924,-6.4829,-6.4831,-6.4872,-6.5018,-6.5019,-6.5094,-6.5107,-6.5152,0,-6.5194,0,-6.5209,-6.5231,-6.5231,0,0,0,-6.4865,-6.4914,-6.4949,-6.4831,-6.4873,-6.5017,-6.495,-6.5101,-6.5116,-6.5169,-6.5196,-6.5203,-6.5212,-6.5232,-6.5233,-6.5508,-6.551,0,0,-6.4857,-6.4857,-6.4939,-6.4959,-6.4938,-6.4945,-6.4955,-6.511,-6.5139,-6.5197,-6.5208,-6.5215,-6.5233,-6.5235,-6.5507,-6.5509,0,0,0,-6.4837,-6.4851,-6.4883,-6.4951,-6.4977,-6.495,-6.496,-6.5133,-6.5143,-6.521,-6.5218,-6.5235,-6.5237,-6.5505,-6.5507,-6.558,0,0,0,-6.4832,-6.484,-6.4879,-6.4881,-6.4975,-6.5057,-6.498,-6.5132,-6.515,-6.5217,-6.5235,-6.5239,-6.5503,-6.5506,-6.5574,-6.5613,0,0,0,-6.4816,-6.4838,-6.4861,-6.488,-6.4944,-6.5054,-6.5074,-6.5136,-6.5155,-6.5232,-6.524,-6.5502,-6.5506,-6.5569,-6.5605,-6.5684,0,0,0,-6.4799,-6.4923,-6.4862,-6.5004,-6.4943,-6.51,-6.5073,-6.5189,-6.5264,-6.5236,-6.5504,-6.5507,-6.5568,-6.56,-6.5678,-6.5748,-6.5778,0,0,-6.4955,-6.4942,-6.5025,-6.4975,-6.5142,-6.5077,-6.5255,-6.5323,-6.533,-6.5448,-6.5455,-6.5576,-6.5604,-6.5682,-6.595,-6.5974,0,0,0,-6.5074,-6.5134,-6.5178,-6.525,-6.5307,-6.5358,-6.54,-6.5426,-6.5526,-6.5391,-6.5628,-6.5644,-6.569,-6.5723,-6.5743,-6.5782,-6.5523,-6.5523,-6.5523,-6.5291,-6.5296,-6.5433,-6.5456,-6.5527,-6.557,-6.5627,-6.5668,-6.5651,-6.5707,-6.5741,-6.5903,-6.5942,-6.5957,-6.5997,-6.5781,-6.5781,-6.5781,-6.5782,-6.5517,-6.5601,-6.5578,-6.5703,-6.5707,-6.5812,-6.5859,-6.5844,-6.5941,-6.5878,-6.5918,-6.5845,-6.5983,-6.6018,-6.5787,-6.5786,-6.5785,-6.5785,-6.5785,-6.5657,-6.5697,-6.5729,-6.5834,-6.5915,-6.5934,-6.6029,-6.603,-6.6031,-6.6072,-6.6106,-6.6105,-6.6102,-6.6089,-6.609,-6.609,-6.6091,-6.6091,-6.6092,-6.5787,-6.582,-6.59,-6.5973,-6.602,-6.6082,-6.6129,-6.6174,-6.6225,-6.6218,-6.6218,-6.6194,-6.5997,-6.5945,-6.61,-6.6099,-6.6098,-6.6097,-6.6096,-6.6008,-6.5959,-6.6083,-6.613,-6.6216,-6.6296,-6.6298,-6.6391,-6.643,-6.6476,-6.6446,-6.6301,-6.6286,-6.627,-6.6227,-6.6446,-6.6446,-6.6446,-6.6446,-6.6123,-6.6118,-6.6245,-6.632,-6.6395,-6.641,-6.6548,-6.6587,-6.6619,-6.6642,-6.6612,-6.6557,-6.6541,-6.6535,-6.6514,-6.6473,-6.675,-6.675,-6.675,-6.6258,-6.6261,-6.6378,-6.641,-6.6478,-6.6536,-6.6666,-6.6753,-6.6779,-6.6763,-6.6661,-6.6648,-6.6558,-6.653,-6.6506,-6.6472,-6.6398,0,0]},{"header":{"parameterUnit":"m.s-1","parameterCategory":1,"la1":30.2992,"la2":30.254,"lo1":-89.0895,"lo2":-89.0443,"dy":0.0025,"dx":0.0025,"nx":19,"ny":19,"refTime":"2026-04-20T03:00:00:Z","depth":0,"parameterNumber":3,"parameterNumberName":"V-component_of_WINDS"},"data":[0,0,0,4.4023,4.4024,4.4077,4.4077,4.4139,4.414,0,0,0,0,0,0,0,0,0,0,0,4.4005,4.4005,4.4022,4.4024,4.4077,4.4077,4.4139,4.414,0,0,0,0,0,0,0,0,0,0,0,4.4004,4.4005,4.4005,4.4024,4.4077,4.4077,4.4139,4.41,0,0,0,0,0,0,0,0,0,0,4.405,4.4031,4.4005,4.4005,4.4024,4.4077,4.4077,4.4099,4.4103,4.4113,0,4.4123,0,4.4132,4.4144,4.4144,0,0,0,4.4025,4.4028,4.4045,4.4005,4.4025,4.4077,4.4053,4.4101,4.4106,4.4118,4.4124,4.4126,4.4133,4.4144,4.4144,4.4203,4.4203,0,0,4.4022,4.4012,4.4041,4.4047,4.4041,4.4051,4.4055,4.4104,4.4108,4.4124,4.4128,4.4134,4.4144,4.4145,4.4203,4.4203,0,0,0,4.4013,4.401,4.4026,4.4045,4.4055,4.4053,4.4057,4.4106,4.4112,4.4128,4.4135,4.4145,4.4145,4.4203,4.4203,4.4206,0,0,0,4.4011,4.4005,4.4025,4.4019,4.4054,4.4082,4.4058,4.4109,4.4115,4.4135,4.4145,4.4146,4.4202,4.4203,4.4205,4.4209,0,0,0,4.4002,4.4004,4.4011,4.4019,4.4042,4.4081,4.409,4.411,4.4119,4.4144,4.4146,4.4202,4.4203,4.4205,4.4208,4.4222,0,0,0,4.3989,4.4012,4.4011,4.404,4.4041,4.4083,4.409,4.4121,4.4143,4.4145,4.4202,4.4203,4.4205,4.4207,4.4221,4.4232,4.4236,0,0,4.4013,4.4014,4.4032,4.4033,4.4073,4.4076,4.4116,4.4143,4.4153,4.4185,4.4187,4.4206,4.4208,4.4222,4.4261,4.4263,0,0,0,4.4036,4.4049,4.4061,4.4083,4.4106,4.4126,4.4149,4.4159,4.4188,4.4169,4.4215,4.4216,4.4225,4.423,4.4233,4.4241,4.4205,4.4205,4.4205,4.4056,4.4069,4.4099,4.4119,4.414,4.4164,4.4182,4.42,4.4205,4.4216,4.4225,4.4248,4.4254,4.4256,4.4264,4.4232,4.4232,4.4232,4.4232,4.4092,4.4112,4.4121,4.4153,4.4167,4.4193,4.4218,4.4221,4.4247,4.4241,4.4249,4.4242,4.4259,4.4267,4.4233,4.4233,4.4233,4.4233,4.4233,4.4106,4.4118,4.4132,4.4166,4.4189,4.4208,4.4233,4.4244,4.4254,4.4262,4.4274,4.4274,4.4275,4.4267,4.4267,4.4267,4.4267,4.4267,4.4267,4.4116,4.4131,4.4152,4.418,4.4196,4.4218,4.4243,4.4258,4.4278,4.4283,4.4284,4.4288,4.4258,4.4251,4.4269,4.4268,4.4268,4.4268,4.4268,4.4148,4.4143,4.4175,4.4191,4.4225,4.4248,4.4262,4.4292,4.4306,4.4318,4.4322,4.4298,4.43,4.4298,4.4291,4.4319,4.4319,4.4319,4.4319,4.416,4.4163,4.4199,4.4224,4.425,4.4266,4.4301,4.4321,4.434,4.4349,4.4347,4.434,4.4337,4.434,4.4338,4.4332,4.4369,4.4369,4.4369,4.4181,4.4186,4.4215,4.4236,4.4263,4.4286,4.432,4.4347,4.4367,4.4371,4.4357,4.4355,4.4343,4.4338,4.4342,4.4337,4.4327,0,0]}]]